Location: Unspecified
(51.0950°N, 12.9690°E)
Time: 15:14:39
(UTC+00:00)

BEESAT - Pass Details

Date: 01 May 2024
Orbit: 692 x 702 km, 98.5° (Epoch: 27 May)

Event Time Altitude Azimuth Distance (km) Brightness Sun altitude
Rises 21:19:27 0° 15° (NNE) 3,083 ? -19.6°
Reaches altitude 10° 21:21:43 10° 17° (NNE) 2,161 ? -19.7°
Maximum altitude 21:26:27 78° 104° (ESE) 714 ? -20.1°
Enters shadow 21:28:02 42° 183° (S) 984 ? -20.2°
